GW1230 Weather Reports


Display with metric or nautical units.
time (UTC)temp
F
wind
direction
speed
MPH
gust
MPH
rain 1hr
in
rain 24hr
in
rain mn
in
humidity
%
barometer
mb
20260505024807 72 299 2.0 3.0 0.00 0.00 0.00 58 1009.2
20260505024304 72 294 3.0 3.0 0.00 0.00 0.00 57 1009.0
20260505023801 73 292 3.0 5.0 0.00 0.00 0.00 56 1009.0
20260505023258 73 280 2.0 3.0 0.00 0.00 0.00 55 1008.9
20260505022755 74 287 5.0 7.0 0.00 0.00 0.00 55 1009.0
20260505022252 75 291 7.0 9.0 0.00 0.00 0.00 55 1008.9
20260505021749 75 306 2.0 2.0 0.00 0.00 0.00 54 1009.0
20260505021246 76 295 2.0 3.0 0.00 0.00 0.00 53 1009.0
20260505020741 77 279 4.0 7.0 0.00 0.00 0.00 52 1008.9
20260505020237 77 255 2.0 3.0 0.00 0.00 0.00 51 1008.8
20260505015734 78 254 1.0 2.0 0.00 0.00 0.00 50 1008.7
20260505015231 77 256 2.0 3.0 0.00 0.00 0.00 51 1008.8
20260505014728 77 173 3.0 3.0 0.00 0.00 0.00 51 1008.8
20260505014226 77 255 2.0 3.0 0.00 0.00 0.00 50 1009.0
20260505013722 78 273 2.0 2.0 0.00 0.00 0.00 49 1009.0
20260505013219 79 267 0.0 1.0 0.00 0.00 0.00 48 1008.9
20260505012718 78 290 2.0 2.0 0.00 0.00 0.00 49 1009.1
20260505012215 78 278 0.0 1.0 0.00 0.00 0.00 49 1009.1
20260505011710 78 286 2.0 2.0 0.00 0.00 0.00 49 1008.9
20260505011208 78 276 0.0 1.0 0.00 0.00 0.00 48 1009.0
20260505010703 79 293 0.0 1.0 0.00 0.00 0.00 48 1009.0
20260505010200 79 217 4.0 5.0 0.00 0.00 0.00 47 1009.0
20260505005656 80 195 3.0 5.0 0.00 0.00 0.00 44 1008.9
20260505005153 79 269 1.0 1.0 0.00 0.00 0.00 45 1008.8
20260505004650 79 165 3.0 5.0 0.00 0.00 0.00 44 1009.1
20260505004146 80 193 4.0 5.0 0.00 0.00 0.00 44 1009.1
20260505003644 79 281 3.0 3.0 0.00 0.00 0.00 43 1009.0
20260505003142 80 252 6.0 7.0 0.00 0.00 0.00 42 1008.9
20260505002638 79 243 3.0 3.0 0.00 0.00 0.00 44 1009.1
20260505002136 80 251 4.0 6.0 0.00 0.00 0.00 43 1009.2
20260505001632 80 293 1.0 1.0 0.00 0.00 0.00 43 1009.0
20260505001130 80 306 2.0 2.0 0.00 0.00 0.00 43 1009.2
20260505000627 80 249 6.0 8.0 0.00 0.00 0.00 43 1009.3
20260505000125 80 225 4.0 5.0 0.00 0.00 0.00 42 1009.0
20260504235621 79 258 4.0 6.0 0.00 0.00 0.00 43 1009.2
20260504235117 81 237 5.0 6.0 0.00 0.00 0.00 40 1009.1
20260504234614 80 275 5.0 6.0 0.00 0.00 0.00 42 1009.1
20260504234112 80 301 2.0 3.0 0.00 0.00 0.00 40 1009.3
20260504233607 80 186 5.0 7.0 0.00 0.00 0.00 40 1009.3
20260504233104 80 208 5.0 7.0 0.00 0.00 0.00 40 1009.3
20260504232601 80 278 1.0 1.0 0.00 0.00 0.00 39 1009.4
20260504232059 80 204 5.0 7.0 0.00 0.00 0.00 39 1009.2
20260504231555 79 205 4.0 6.0 0.00 0.00 0.00 40 1009.3
20260504231051 80 289 5.0 7.0 0.00 0.00 0.00 38 1009.3
20260504230547 79 244 3.0 5.0 0.00 0.00 0.00 40 1009.2
20260504230047 80 208 3.0 3.0 0.00 0.00 0.00 39 1009.3
20260504225543 80 212 3.0 3.0 0.00 0.00 0.00 38 1009.6
20260504225040 80 182 6.0 7.0 0.00 0.00 0.00 39 1009.4
20260504224537 79 205 6.0 8.0 0.00 0.00 0.00 40 1009.6
20260504224034 80 207 4.0 5.0 0.00 0.00 0.00 40 1009.5
20260504223531 80 246 3.0 3.0 0.00 0.00 0.00 40 1009.7
20260504223027 81 251 2.0 3.0 0.00 0.00 0.00 38 1009.8
20260504222523 80 236 5.0 7.0 0.00 0.00 0.00 37 1009.9
20260504222021 79 254 3.0 5.0 0.00 0.00 0.00 41 1009.9
20260504221518 79 296 5.0 7.0 0.00 0.00 0.00 37 1009.9
20260504221015 78 256 2.0 3.0 0.00 0.00 0.00 38 1010.0
20260504220512 77 258 5.0 7.0 0.00 0.00 0.00 39 1010.0
20260504220009 78 282 3.0 3.0 0.00 0.00 0.00 36 1010.0
20260504215505 78 254 4.0 6.0 0.00 0.00 0.00 35 1010.2
20260504215003 78 235 6.0 8.0 0.00 0.00 0.00 40 1010.1
20260504214458 77 181 3.0 3.0 0.00 0.00 0.00 43 1010.2
20260504213955 77 229 5.0 7.0 0.00 0.00 0.00 44 1010.1
20260504213451 77 236 7.0 10.0 0.00 0.00 0.00 47 1010.2
20260504212949 77 251 6.0 7.0 0.00 0.00 0.00 47 1010.2
20260504212444 77 275 3.0 5.0 0.00 0.00 0.00 49 1010.2
20260504211942 78 227 2.0 3.0 0.00 0.00 0.00 47 1010.3
20260504211438 77 206 5.0 7.0 0.00 0.00 0.00 48 1010.4
20260504210936 77 269 0.0 0.0 0.00 0.00 0.00 49 1010.4
20260504210432 76 251 3.0 3.0 0.00 0.00 0.00 50 1010.4
20260504205929 77 241 5.0 6.0 0.00 0.00 0.00 50 1010.7
20260504205427 77 249 6.0 7.0 0.00 0.00 0.00 49 1010.5
20260504204925 76 190 3.0 5.0 0.00 0.00 0.00 49 1010.6
20260504204423 76 246 4.0 6.0 0.00 0.00 0.00 48 1010.5
20260504203922 77 250 4.0 6.0 0.00 0.00 0.00 49 1010.4
20260504203419 76 253 5.0 6.0 0.00 0.00 0.00 49 1010.3
20260504202915 76 233 5.0 7.0 0.00 0.00 0.00 48 1010.4
20260504202412 76 199 4.0 5.0 0.00 0.00 0.00 47 1010.5
20260504201909 75 207 3.0 5.0 0.00 0.00 0.00 49 1010.6
20260504201406 77 243 3.0 6.0 0.00 0.00 0.00 48 1010.6
20260504200903 75 279 7.0 8.0 0.00 0.00 0.00 49 1010.4
20260504200400 74 244 5.0 8.0 0.00 0.00 0.00 50 1010.6
20260504195856 74 224 3.0 5.0 0.00 0.00 0.00 48 1010.7
20260504195352 73 208 5.0 7.0 0.00 0.00 0.00 53 1010.6
20260504194849 73 249 8.0 9.0 0.00 0.00 0.00 53 1010.5
20260504194345 73 254 7.0 8.0 0.00 0.00 0.00 53 1010.7
20260504193841 73 264 3.0 5.0 0.00 0.00 0.00 54 1010.3
20260504193338 74 209 4.0 7.0 0.00 0.00 0.00 51 1010.5
20260504192837 73 246 4.0 6.0 0.00 0.00 0.00 53 1010.7
20260504192335 73 249 3.0 5.0 0.00 0.00 0.00 50 1010.6
20260504191833 73 260 6.0 9.0 0.00 0.00 0.00 49 1010.5
20260504191330 72 238 7.0 8.0 0.00 0.00 0.00 50 1010.6
20260504190825 73 255 4.0 7.0 0.00 0.00 0.00 49 1010.9
20260504190322 75 246 4.0 5.0 0.00 0.00 0.00 47 1010.7
20260504185819 77 256 5.0 6.0 0.00 0.00 0.00 42 1010.6
20260504185316 75 326 2.0 3.0 0.00 0.00 0.00 41 1010.6
20260504184812 75 208 4.0 5.0 0.00 0.00 0.00 42 1010.8
20260504184308 75 245 2.0 3.0 0.00 0.00 0.00 41 1010.6
20260504183803 73 273 4.0 5.0 0.00 0.00 0.00 44 1010.7
20260504183301 74 193 3.0 5.0 0.00 0.00 0.00 42 1010.8
20260504182759 73 169 3.0 5.0 0.00 0.00 0.00 44 1010.9
20260504182255 71 281 1.0 2.0 0.00 0.00 0.00 47 1010.9
20260504181753 73 295 5.0 6.0 0.00 0.00 0.00 48 1010.9
20260504181250 71 257 3.0 3.0 0.00 0.00 0.00 50 1010.7
20260504180749 70 241 3.0 5.0 0.00 0.00 0.00 50 1011.0
20260504180247 73 280 6.0 7.0 0.00 0.00 0.00 49 1010.7
20260504175745 73 217 2.0 2.0 0.00 0.00 0.00 45 1010.8
20260504175241 73 197 4.0 5.0 0.00 0.00 0.00 46 1010.7
20260504174739 73 194 4.0 5.0 0.00 0.00 0.00 47 1010.7
20260504174237 72 279 2.0 3.0 0.00 0.00 0.00 47 1010.7
20260504173733 72 285 2.0 3.0 0.00 0.00 0.00 47 1010.8
20260504173230 70 253 3.0 3.0 0.00 0.00 0.00 51 1010.7
20260504172727 70 253 4.0 5.0 0.00 0.00 0.00 52 1010.8
20260504172223 71 244 5.0 6.0 0.00 0.00 0.00 50 1011.0
20260504171720 72 240 5.0 5.0 0.00 0.00 0.00 50 1010.8
20260504171217 71 293 0.0 0.0 0.00 0.00 0.00 50 1010.6
20260504170714 71 256 3.0 5.0 0.00 0.00 0.00 49 1010.8
20260504170211 71 227 1.0 2.0 0.00 0.00 0.00 50 1010.8
20260504160129 67 39 1.0 2.0 0.00 0.00 0.00 64 1010.7
20260504151057 62 267 0.0 0.0 0.00 0.00 0.00 73 1010.2
20260504150554 62 257 1.0 1.0 0.00 0.00 0.00 74 1010.1
20260504141020 59 22 1.0 1.0 0.00 0.00 0.00 82 1010.0
20260504140517 58 34 0.0 0.0 0.00 0.00 0.00 82 1009.9
20260504130441 56 354 0.0 0.0 0.00 0.00 0.00 83 1009.4
20260504110323 57 349 0.0 0.0 0.00 0.00 0.00 76 1009.2
20260504100240 57 341 0.0 0.0 0.00 0.00 0.00 73 1009.3
20260504081633 65 23 0.0 0.0 0.00 0.00 0.00 56 1009.1
20260504081129 65 26 0.0 0.0 0.00 0.00 0.00 56 1009.2
20260504080626 65 6 0.0 0.0 0.00 0.00 0.00 56 1009.4
20260504080123 65 21 0.0 0.0 0.00 0.00 0.00 57 1009.3
20260504050439 70 51 0.0 0.0 0.00 0.00 0.00 46 1009.2
20260504045936 70 282 0.0 0.0 0.00 0.00 0.00 46 1009.0
20260504045432 70 327 0.0 0.0 0.00 0.00 0.00 44 1009.3
20260504044928 70 342 0.0 0.0 0.00 0.00 0.00 44 1009.0
20260504044426 70 336 0.0 0.0 0.00 0.00 0.00 43 1009.3
20260504043923 70 333 0.0 0.0 0.00 0.00 0.00 44 1008.9
20260504043420 69 327 0.0 0.0 0.00 0.00 0.00 43 1009.1
20260504042917 69 322 0.0 0.0 0.00 0.00 0.00 43 1009.2
20260504042414 69 328 0.0 0.0 0.00 0.00 0.00 43 1009.0
20260504041910 70 333 0.0 0.0 0.00 0.00 0.00 42 1009.1
20260504041406 70 335 0.0 0.0 0.00 0.00 0.00 41 1009.2
20260504040903 71 4 0.0 0.0 0.00 0.00 0.00 40 1008.8
20260504040400 71 0 0.0 1.0 0.00 0.00 0.00 40 1008.9
20260504035856 71 342 1.0 1.0 0.00 0.00 0.00 40 1008.8
20260504035354 71 349 2.0 2.0 0.00 0.00 0.00 39 1009.0
20260504034850 72 319 1.0 2.0 0.00 0.00 0.00 39 1008.7
20260504034348 72 318 1.0 1.0 0.00 0.00 0.00 39 1008.9
20260504033844 72 324 1.0 1.0 0.00 0.00 0.00 39 1008.9
20260504033343 72 339 2.0 2.0 0.00 0.00 0.00 38 1008.9
20260504032839 72 330 3.0 3.0 0.00 0.00 0.00 38 1009.0
20260504032336 72 316 2.0 2.0 0.00 0.00 0.00 38 1008.8
20260504031833 72 306 3.0 5.0 0.00 0.00 0.00 39 1008.8
20260504031330 73 336 2.0 2.0 0.00 0.00 0.00 39 1008.8
20260504030826 73 330 2.0 2.0 0.00 0.00 0.00 40 1008.7
20260504030324 73 304 1.0 2.0 0.00 0.00 0.00 41 1009.0
20260504025820 73 328 2.0 2.0 0.00 0.00 0.00 41 1009.0
20260504025317 73 331 4.0 5.0 0.00 0.00 0.00 42 1008.8